User: anonymous   Login
Location: Unspecified
(0.0000°N, 0.0000°E)
Time: 06:16:07
(UTC+00:00)
Language:

USA 284 - Orbit

View from above orbital plane
View from above orbital plane
View from above satellite
View from above satellite

Ground track
Ground track

The orbit data is extracted from the following two-line orbital elements,

1 43340U 18036B   18276.32189114 0.00000000  00000-0  00000-0 0    08
2 43340   0.3841  94.9189 0004095  24.1977 335.8462  0.99391394    08
Epoch (UTC): 03 October 2018 07:43:31
Eccentricity: 0.0004095
inclination: 0.3841°
perigee height: 36017 km
apogee height: 36052 km
right ascension of ascending node: 94.9189°
argument of perigee: 24.1977°
revolutions per day: 0.99391394
mean anomaly at epoch: 335.8462°
orbit number at epoch: 0

The dashed part of the orbit path shows where the satellite is in the earth's shadow,  

DLR